Tracking 30072 objects as of 15-Jan-2025
HD Live streaming from Space Station
objects crossing your sky now

STARLINK-2423

Track STARLINK-2423 now!
10-day predictions
STARLINK-2423 is classified as:


NORAD ID: 47833
Int'l Code: 2021-018AY
Perigee: 553.3 km
Apogee: 555.4 km
Inclination: 53.1 °
Period: 95.6 minutes
Semi major axis: 6925 km
RCS: Unknown
Launch date: March 11, 2021
Source: United States (US)
Launch site: AIR FORCE EASTERN TEST RANGE (AFETR)
Your satellite tracking list
Your tracking list is empty




NASA's NSSDC Master Catalog

Two Line Element Set (TLE):
1 47833U 21018AY  25014.27410038  .00003425  00000-0  24874-3 0  9996
2 47833  53.0554 334.4495 0001541  82.3892 277.7272 15.06398561213435
Source of the keplerian elements: AFSPC